Lexington Weather

Lexington, Massachusetts, USA

29°F
4/1/2020 4:32am 
  • Lexington Conditions: Clear
  • Temperature: 29.3°F / -1.5°C 
  • Dew Point: 27.5°FIncreased 0.2°Fsince last hour.
  • Relative Humidity: 93%Increased 1.0% since last hour.
  • Wind: Calm, 10-min avg: Calm, gust: 1 mph
  • Barometer: 29.87 inFalling 0.02  inHg/hr Falling Slowly
  • Visibility: 10 miles
  • Snow Today: 0.0 in
  •   

Regional Weather Roundup
for Boston / Norton, MA

        
000
ASUS41 KBOX 310204
RWRBOX

REGIONAL WEATHER ROUNDUP
NATIONAL WEATHER SERVICE BOSTON/NORTON MA
1000 PM EDT MON MAR 30 2020

NOTE:  "FAIR" INDICATES FEW OR NO CLOUDS BELOW 12,000 FEET WITH NO 
SIGNIFICANT WEATHER AND/OR OBSTRUCTIONS TO VISIBILITY.

MAZALL-310300-
EASTERN MASSACHUSETTS
  
CITY           SKY/WX    TMP DP  RH WIND       PRES   REMARKS
BOSTON         LGT RAIN  37  34  89 NE18      30.04S WCI  27          
BEVERLY        LGT RAIN  37  34  89 NE9G16    30.04S FOG     WCI  30  
LAWRENCE       LGT RAIN  36  34  92 NE10      30.07R FOG     WCI  28  
BEDFORD        CLOUDY    37  34  89 N8        30.04R WCI  31          
BLUE HILL        N/A     35  34  96 NE10G23   29.99R WCI  27          
NORWOOD        CLOUDY    39  34  82 NE8       30.03R                  
MARSHFIELD     CLOUDY    39  37  93 NE14G22   30.01S WCI  31          
PLYMOUTH       LGT RAIN  38  36  92 NE10G18     N/A  WCI  31          
TAUNTON        CLOUDY    38  36  92 VRB7      30.00R                  
NEW BEDFORD    CLOUDY    38  37  97 NE12G23   29.99R WCI  30          
$$

MAZALL-310300-
CAPE COD AND THE ISLANDS
  
CITY           SKY/WX    TMP DP  RH WIND       PRES   REMARKS
FALMOUTH       CLOUDY    37  37 100 NE12G21   29.98S WCI  30          
HYANNIS        CLOUDY    40  36  86 NE20G25   29.96R WCI  30          
CHATHAM        CLOUDY    39  35  86 NE13G25   29.98R WCI  31          
PROVINCETOWN   LGT RAIN  37  36  96 NE18G25   30.01S WCI  27          
NANTUCKET      CLOUDY    40  38  93 NE20G25   29.94R WCI  30          
MARTHAS VNYRD  CLOUDY    40  37  89 NE18G26   29.96R FOG     WCI  31  
$$
 
MAZALL-310300-
CENTRAL AND WESTERN MASSACHUSETTS
  
CITY           SKY/WX    TMP DP  RH WIND       PRES   REMARKS
WORCESTER      MIX PCPN  34  32  92 NE9G18    30.00R FOG     WCI  27  
FITCHBURG      CLOUDY    36  33  89 VRB5      30.05R                  
ORANGE         CLOUDY    38  34  85 NE5       30.04R                  
SPRINGFIELD    CLOUDY    39  37  91 NE5       30.02R                  
WESTFIELD      CLOUDY    40  36  86 N6        30.03R                  
NORTH ADAMS    CLOUDY    38  33  82 E10       30.01R WCI  31          
PITTSFIELD     CLOUDY    37  33  85 E5        29.97S                  
$$
 
RIZALL-310300-
RHODE ISLAND
  
CITY           SKY/WX    TMP DP  RH WIND       PRES   REMARKS
PROVIDENCE     CLOUDY    40  36  86 NE12      30.01R                  
NEWPORT        CLOUDY    41  36  82 NE13      29.99R                  
BLOCK ISLAND   CLOUDY    40  35  83 NE16      29.99R WCI  31          
SMITHFIELD     CLOUDY    37  36  96 NE12      30.00S WCI  29          
WESTERLY       CLOUDY    44  34  67 NE8       30.00R                  
$$
 
CTZALL-310300-
CONNECTICUT
  
CITY           SKY/WX    TMP DP  RH WIND       PRES   REMARKS
BRADLEY INTL   CLOUDY    40  37  89 NE9       30.02R                  
HARTFORD       CLOUDY    43  35  73 NE5       30.02R                  
BRIDGEPORT     LGT RAIN  46  40  79 NE7       29.99R                  
DANBURY        CLOUDY    43  37  79 NE9       30.00R                  
GROTON         CLOUDY    41  36  82 NE10      30.00R                  
NEW HAVEN      CLOUDY    46  38  73 NE6       30.00R                  
CHESTER        CLOUDY    41  37  87 VRB6G12   30.00R                  
MERIDEN        CLOUDY    43  36  76 N7        30.01R                  
WILLIMANTIC    CLOUDY    40  35  83 N9        30.01R                  
OXFORD         CLOUDY    40  38  93 NE13      29.99R                  
$$

MEZ002-015-021-024-NHZ003-005-008-011-012-014-VTZ005-008-310300-
NORTHERN NEW ENGLAND
  
CITY           SKY/WX    TMP DP  RH WIND       PRES   REMARKS
PORTLAND ME    CLOUDY    35  30  82 NE13      30.10R WCI  26          
BANGOR ME      CLOUDY    33  29  85 N8        30.10S WCI  26          
CONCORD NH     CLOUDY    35  32  88 NE5       30.07R WCI  31          
MANCHESTER NH  LGT RAIN  36  34  92 N5        30.05R                  
NASHUA NH      LGT RAIN  35  35 100 NE7       30.07R WCI  29          
PORTSMOUTH NH  DRIZZLE   35  34  95 NE8       30.05  FOG     WCI  29  
JAFFREY NH     LGT RAIN  35  33  92 VRB3      30.02S                  
KEENE NH       MIX PCPN  36  33  89 CALM      30.05R                  
BURLINGTON VT  LGT RAIN  40  36  86 SE5       30.01R                  
MT. WASHINGTON SNOWSHWR  21  21 100 E9          N/A  VSB 1/16WCI  11  
$$

NYZ052-076-310300-
EASTERN NEW YORK
  
CITY           SKY/WX    TMP DP  RH WIND       PRES   REMARKS
ALBANY         LGT RAIN  44  37  76 SE3       30.00R                  
NEW YORK CITY  LGT RAIN  46  41  82 E8        29.98S                  
$$
 
ANZALL-310300-
MARINE OBSERVATIONS
  
STATION/POSITION TIME  TEMP    WIND        PRES    VSBY  WAVE
                       AIR SEA DIR/SP/G                  HT/PER
                 (UTC) (F)     (DEG/KT/KT) (MB)    (MI)  (FT/S)
BOSTON BUOY      0150   39 43   50/ 19/ 23 1015.8F         9/ 9
BUZZARDS BAY     0100           30/ 17/ 18 1015.9R
NANTUCKET SOUND  0140                        N/A           3/ 4
MASS BAY-STELLWA 0104   38 42   60/ 19/ 25 1014.9R  1 7/8 11/11
ISLE OF SHOALS   0100   36      40/ 20/ 23 1017.0R
S OF BLOCK IS    0130      44                N/A           5/ 4
$$

......................KEY.........................
  SKY/WX - SKY CONDITION/PRESENT WEATHER
  TMP    - TEMPERATURE IN FAHRENHEIT
  DWPT   - DEWPOINT IN FAHRENHEIT
  RH     - RELATIVE HUMIDITY IN PERCENT
  WIND   - DIRECTION AND SPEED IN MPH
  PRES   - MEAN SEA LEVEL PRESSURE IN INCHES OF HG
  WCI    - WIND CHILL INDEX
  VSB    - VISIBILITY IN MILES
  HX     - HEAT INDEX
  TC     - TEMPERATURE IN CELSIUS
  VRB    - VARIABLE WIND DIRECTION
  N/A    - NOT AVAILABLE
  
      

Other recent Regional Weather Roundups

Wed Apr 1, 4:05am

Wed Apr 1, 3:04am

Wed Apr 1, 2:04am

Wed Apr 1, 1:04am

Wed Apr 1, 12:04am

Tue Mar 31, 11:04pm

Tue Mar 31, 10:04pm

Tue Mar 31, 9:04pm

Tue Mar 31, 8:04pm

Tue Mar 31, 7:04pm

Tue Mar 31, 6:04pm

Tue Mar 31, 4:04pm

Tue Mar 31, 3:04pm

Tue Mar 31, 2:04pm

Tue Mar 31, 1:04pm

Tue Mar 31, 12:05pm

Tue Mar 31, 11:04am

Tue Mar 31, 10:05am

Tue Mar 31, 9:04am

Tue Mar 31, 8:04am

Tue Mar 31, 7:05am

Tue Mar 31, 6:04am

Tue Mar 31, 5:04am

Tue Mar 31, 4:04am

Tue Mar 31, 3:04am

Tue Mar 31, 2:04am

Tue Mar 31, 1:04am

Tue Mar 31, 12:04am

Mon Mar 30, 11:04pm

Mon Mar 30, 9:05pm

Mon Mar 30, 8:04pm

Mon Mar 30, 7:04pm

Mon Mar 30, 6:04pm

Mon Mar 30, 5:05pm

Mon Mar 30, 4:04pm

Mon Mar 30, 3:04pm

Mon Mar 30, 2:04pm

Mon Mar 30, 1:04pm

Mon Mar 30, 12:04pm

Mon Mar 30, 11:04am

Mon Mar 30, 10:04am

Mon Mar 30, 9:04am

Mon Mar 30, 8:04am

Mon Mar 30, 7:04am

Mon Mar 30, 6:04am

Mon Mar 30, 5:04am

Mon Mar 30, 4:04am

Mon Mar 30, 3:05am

Mon Mar 30, 2:04am

Mon Mar 30, 1:04am

Mon Mar 30, 12:04am

Sun Mar 29, 11:04pm

Sun Mar 29, 10:05pm

Sun Mar 29, 9:04pm

Sun Mar 29, 8:04pm

Sun Mar 29, 7:04pm

Sun Mar 29, 6:04pm

Sun Mar 29, 5:05pm

Sun Mar 29, 4:04pm

Sun Mar 29, 3:04pm

Sun Mar 29, 2:04pm

Sun Mar 29, 1:05pm

Sun Mar 29, 12:04pm

Sun Mar 29, 11:04am

Sun Mar 29, 10:04am

Sun Mar 29, 9:04am

Sun Mar 29, 8:04am

Sun Mar 29, 7:04am

Sun Mar 29, 6:04am

Sun Mar 29, 5:04am

Meta data:

ID: 13d4edae-477b-4157-837a-5cd963bbe676
Link: https://api.weather.gov/products/13d4edae-477b-4157-837a-5cd963bbe676